DW8004 Weather Reports


time (UTC)temp
C
wind
direction
speed
KPH
gust
KPH
rain 1hr
cm
rain 24hr
cm
rain mn
cm
humidity
%
barometer
mb
20260901160049 17 98 0.0 0.0 0.20 0.61 0.61 97 1014.2
20260901154513 17 83 0.0 0.0 0.13 0.53 0.53 97 1015.2
20260901153054 17 83 0.0 0.0 0.08 0.48 0.48 97 1015.4
20260901151600 17 90 0.0 0.0 0.03 0.43 0.43 97 1015.3
20260901150036 17 88 0.0 0.0 0.00 0.41 0.41 97 1015.3
20260901144510 17 117 0.0 0.0 0.00 0.41 0.41 98 1015.0
20260901143004 16 123 0.0 0.0 0.00 0.41 0.41 97 1015.2
20260901141507 16 163 0.0 0.0 0.00 0.41 0.41 98 1015.0
20260901140047 16 233 0.0 0.0 0.00 0.41 0.41 98 1015.6
20260901134554 16 233 0.0 0.0 0.00 0.41 0.41 97 1015.8
20260901133033 16 233 0.0 0.0 0.00 0.41 0.41 97 1015.9
20260901131632 16 233 0.0 0.0 0.00 0.41 0.41 97 1015.8
20260901130113 16 233 0.0 0.0 0.00 0.41 0.41 97 1016.0
20260901124558 16 233 0.0 0.0 0.03 0.41 0.41 98 1015.5
20260901123050 16 233 0.0 0.0 0.03 0.41 0.41 97 1015.8
20260901121529 16 233 0.0 0.0 0.08 0.41 0.41 97 1016.0
20260901120106 16 233 0.0 0.0 0.20 0.41 0.41 97 1016.0
20260901114612 16 233 0.0 0.0 0.25 0.38 0.38 97 1015.7
20260901113012 16 233 0.0 0.0 0.33 0.38 0.38 97 1015.9
20260901111552 16 233 0.0 0.0 0.28 0.30 0.33 97 1016.1
20260901110038 16 233 0.0 0.0 0.18 0.18 0.18 97 1015.6
20260901104534 16 233 0.0 0.0 0.13 0.13 0.13 97 1015.5
20260901103131 16 233 0.0 0.0 0.05 0.05 0.05 96 1015.6
20260901101617 16 233 0.0 0.0 0.03 0.03 0.03 96 1015.3
20260901100057 16 233 0.0 0.0 0.00 0.00 0.00 96 1015.3
20260901094548 17 233 0.0 0.0 0.00 0.00 0.00 95 1015.2
20260901093037 17 233 0.0 0.0 0.00 0.00 0.00 95 1015.2
20260901091544 17 233 0.0 0.0 0.00 0.00 0.00 96 1015.2
20260901090037 16 233 0.0 0.0 0.00 0.00 0.00 96 1015.4
20260901084543 16 233 0.0 0.0 0.00 0.00 0.00 96 1015.4
20260901083036 16 233 0.0 0.0 0.00 0.00 0.00 96 1015.3
20260901081534 16 233 0.0 0.0 0.00 0.00 0.00 96 1015.5
20260901080035 16 233 0.0 0.0 0.00 0.00 0.00 96 1015.5
20260901074611 16 233 0.0 0.0 0.00 0.00 0.00 96 1015.3
20260901073105 16 233 0.0 0.0 0.00 0.00 0.00 96 1015.2
20260901071553 16 233 0.0 0.0 0.00 0.00 0.00 95 1015.6
20260901070056 16 233 0.0 0.0 0.00 0.00 0.00 95 1015.7
20260901064550 16 233 0.0 0.0 0.00 0.00 0.00 96 1016.2
20260901063042 16 233 0.0 0.0 0.00 0.00 0.00 95 1016.3
20260901061556 16 233 0.0 0.0 0.00 0.00 0.00 95 1016.4
20260901060034 16 233 0.0 0.0 0.00 0.00 0.00 95 1016.4
20260901054527 16 233 0.0 0.0 0.00 0.00 0.00 95 1016.2
20260901053018 16 233 0.0 0.0 0.00 0.00 0.00 95 1016.5
20260901051554 16 233 0.0 0.0 0.00 0.00 0.00 95 1016.8
20260901044614 16 233 0.0 0.0 0.00 0.00 0.00 95 1016.5
20260901043056 16 233 0.0 0.0 0.00 0.00 0.00 94 1016.5
20260901041539 16 233 0.0 0.0 0.00 0.00 0.00 94 1016.7
20260901034532 17 233 0.0 0.0 0.00 0.00 0.00 93 1016.5
20260901033004 17 233 0.0 0.0 0.00 0.00 0.00 93 1016.7
20260901031605 17 233 0.0 0.0 0.00 0.00 0.00 93 1016.7
20260901030050 17 233 0.0 0.0 0.00 0.00 0.00 93 1016.8
20260901024547 17 233 0.0 0.0 0.00 0.00 0.00 94 1016.9
20260901023026 17 233 0.0 0.0 0.00 0.00 0.00 94 1017.0
20260901021508 17 233 0.0 0.0 0.00 0.00 0.00 94 1016.9
20260901020112 17 233 0.0 0.0 0.00 0.00 0.00 93 1016.9
20260901014502 17 233 0.0 0.0 0.00 0.00 0.00 93 1016.8
20260901013101 17 233 0.0 0.0 0.00 0.00 0.00 93 1016.9
20260901011540 17 233 0.0 0.0 0.00 0.00 0.00 93 1016.9
20260901010032 17 233 0.0 0.0 0.00 0.00 0.00 93 1016.9
20260901004506 17 233 0.0 0.0 0.00 0.00 0.00 92 1016.9
20260901003006 17 233 0.0 0.0 0.00 0.00 0.00 92 1016.9
20260901001630 17 233 0.0 0.0 0.00 0.00 0.00 91 1016.9
20260901000111 17 233 0.0 0.0 0.00 0.00 0.00 90 1016.9
20260831234557 18 233 0.0 0.0 0.00 0.00 0.00 90 1016.6
20260831233056 18 233 0.0 0.0 0.00 0.00 0.00 89 1016.8
20260831231542 18 233 0.0 0.0 0.00 0.00 0.00 89 1017.0
20260831230022 18 233 0.0 0.0 0.00 0.00 0.00 88 1017.2
20260831224602 18 233 0.0 0.0 0.00 0.00 0.00 87 1017.3
20260831223048 18 233 0.0 0.0 0.00 0.00 0.00 88 1017.3
20260831221532 18 233 0.0 0.0 0.00 0.00 0.00 87 1017.4
20260831220118 19 233 0.0 0.0 0.00 0.00 0.00 85 1017.2
20260831214600 20 233 0.0 0.0 0.00 0.00 0.00 83 1017.1
20260831213043 20 228 0.0 0.0 0.00 0.00 0.00 82 1017.0
20260831211603 20 243 0.0 0.0 0.00 0.00 0.00 84 1017.0
20260831210049 20 216 0.0 0.0 0.00 0.00 0.00 82 1017.0
20260831204634 20 228 0.0 0.0 0.00 0.00 0.00 80 1017.1
20260831203012 20 235 0.0 0.0 0.00 0.00 0.00 79 1017.0
20260831201537 21 225 0.0 0.0 0.00 0.00 0.00 74 1017.1
20260831200027 21 241 0.0 0.0 0.00 0.00 0.00 72 1016.9
20260831194519 21 246 0.0 0.0 0.00 0.00 0.00 72 1017.3
20260831193041 22 232 0.0 0.0 0.00 0.00 0.00 69 1017.5
20260831191548 22 245 0.0 0.0 0.00 0.00 0.00 64 1017.7
20260831190110 22 225 0.0 0.0 0.00 0.00 0.00 65 1017.6
20260831184631 21 224 0.0 0.0 0.00 0.00 0.00 67 1017.9
20260831183043 21 252 0.0 0.0 0.00 0.00 0.00 71 1018.2
20260831181521 22 252 0.0 0.0 0.00 0.00 0.00 64 1018.2
20260831180112 22 290 0.0 0.0 0.00 0.00 0.00 66 1018.1
20260831174612 22 138 0.0 0.0 0.00 0.00 0.00 65 1018.1
20260831173103 21 119 0.0 0.0 0.00 0.00 0.00 67 1018.4
20260831171538 21 227 0.0 0.0 0.00 0.00 0.00 65 1018.5
20260831170013 21 163 0.0 0.0 0.00 0.00 0.00 65 1018.7
20260831164532 21 103 0.0 0.0 0.00 0.00 0.00 64 1018.9
20260831163031 21 105 0.0 0.0 0.00 0.00 0.00 65 1019.0
20260831161511 21 213 0.0 0.0 0.00 0.00 0.00 65 1019.2